Time,TemperatureF,DewpointF,PressureIn,WindDirection,WindDirectionDegrees,WindSpeedMPH,WindSpeedGustMPH,Humidity,HourlyPrecipIn,Conditions,Clouds,dailyrainin,SoftwareType,DateUTC
2013-06-18 00:02:00,70.0,70.0,-100.00,SSE,150,1.0,5.0,99,-99.99,,,-99.99,,2013-06-18 04:02:00,
2013-06-18 00:12:00,70.0,70.0,-100.00,SSE,150,1.0,5.0,99,-99.99,,,-99.99,,2013-06-18 04:12:00,
2013-06-18 00:23:00,70.0,70.0,-100.00,SE,125,1.0,4.0,99,-99.99,,,-99.99,,2013-06-18 04:23:00,
2013-06-18 00:34:00,70.0,70.0,-100.00,ESE,105,1.0,4.0,99,-99.99,,,-99.99,,2013-06-18 04:34:00,
2013-06-18 00:43:00,71.0,70.0,-100.00,SSE,150,0.0,4.0,99,-99.99,,,-99.99,,2013-06-18 04:43:00,
2013-06-18 00:53:00,70.0,70.0,-100.00,SE,130,1.0,3.0,99,-99.99,,,-99.99,,2013-06-18 04:53:00,
2013-06-18 01:02:00,71.0,70.0,-100.00,SSW,195,1.0,2.0,99,-99.99,,,-99.99,,2013-06-18 05:02:00,
2013-06-18 01:12:00,71.0,70.0,-100.00,SSW,195,1.0,2.0,99,-99.99,,,-99.99,,2013-06-18 05:12:00,
2013-06-18 01:22:00,71.0,70.0,-100.00,South,185,1.0,3.0,99,-99.99,,,-99.99,,2013-06-18 05:22:00,
2013-06-18 01:34:00,71.0,70.0,-100.00,SSE,155,2.0,4.0,99,-99.99,,,-99.99,,2013-06-18 05:34:00,
2013-06-18 01:43:00,71.0,71.0,-100.00,SW,225,1.0,2.0,99,-99.99,,,-99.99,,2013-06-18 05:43:00,
2013-06-18 01:53:00,71.0,71.0,-100.00,SE,145,0.0,1.0,99,-99.99,,,-99.99,,2013-06-18 05:53:00,
2013-06-18 02:02:00,71.0,71.0,-100.00,South,170,2.0,4.0,99,-99.99,,,-99.99,,2013-06-18 06:02:00,
2013-06-18 02:11:00,71.0,71.0,-100.00,South,180,1.0,4.0,99,-99.99,,,-99.99,,2013-06-18 06:11:00,
2013-06-18 02:23:00,71.0,71.0,-100.00,SSW,205,3.0,5.0,99,-99.99,,,-99.99,,2013-06-18 06:23:00,
2013-06-18 02:32:00,71.0,71.0,-100.00,WSW,240,1.0,4.0,99,-99.99,,,-99.99,,2013-06-18 06:32:00,
2013-06-18 02:43:00,71.0,71.0,-100.00,WSW,250,2.0,5.0,99,-99.99,,,-99.99,,2013-06-18 06:43:00,
2013-06-18 02:52:00,71.0,71.0,-100.00,SW,220,3.0,6.0,99,-99.99,,,-99.99,,2013-06-18 06:52:00,
2013-06-18 03:02:00,71.0,71.0,-100.00,WSW,250,3.0,6.0,99,-99.99,,,-99.99,,2013-06-18 07:02:00,
2013-06-18 03:12:00,71.0,71.0,-100.00,West,260,3.0,9.0,99,-99.99,,,-99.99,,2013-06-18 07:12:00,
2013-06-18 03:22:00,71.0,71.0,-100.00,West,260,3.0,9.0,99,-99.99,,,-99.99,,2013-06-18 07:22:00,
2013-06-18 03:33:00,71.0,71.0,-100.00,WSW,250,3.0,7.0,99,-99.99,,,-99.99,,2013-06-18 07:33:00,
2013-06-18 03:43:00,71.0,71.0,-100.00,West,270,3.0,8.0,99,-99.99,,,-99.99,,2013-06-18 07:43:00,
2013-06-18 03:53:00,71.0,71.0,-100.00,West,265,4.0,7.0,99,-99.99,,,-99.99,,2013-06-18 07:53:00,
2013-06-18 04:02:00,71.0,71.0,-100.00,WSW,250,4.0,7.0,99,-99.99,,,-99.99,,2013-06-18 08:02:00,
2013-06-18 04:11:00,71.0,71.0,-100.00,WSW,250,1.0,6.0,99,-99.99,,,-99.99,,2013-06-18 08:11:00,
2013-06-18 04:23:00,71.0,71.0,-100.00,WSW,255,4.0,7.0,99,-99.99,,,-99.99,,2013-06-18 08:23:00,
2013-06-18 04:33:00,71.0,71.0,-100.00,West,265,1.0,9.0,99,-99.99,,,-99.99,,2013-06-18 08:33:00,
2013-06-18 04:43:00,71.0,71.0,-100.00,WSW,255,4.0,7.0,99,-99.99,,,-99.99,,2013-06-18 08:43:00,
2013-06-18 04:52:00,71.0,71.0,-100.00,WSW,255,4.0,9.0,99,-99.99,,,-99.99,,2013-06-18 08:52:00,
2013-06-18 05:02:00,71.0,71.0,-100.00,West,265,2.0,7.0,99,-99.99,,,-99.99,,2013-06-18 09:02:00,
2013-06-18 05:12:00,71.0,71.0,-100.00,West,265,4.0,9.0,99,-99.99,,,-99.99,,2013-06-18 09:12:00,
2013-06-18 05:22:00,71.0,71.0,-100.00,West,265,4.0,9.0,99,-99.99,,,-99.99,,2013-06-18 09:22:00,
2013-06-18 05:34:00,71.0,71.0,-100.00,WNW,285,3.0,11.0,99,-99.99,,,-99.99,,2013-06-18 09:34:00,
2013-06-18 05:43:00,71.0,71.0,-100.00,WSW,245,1.0,6.0,99,-99.99,,,-99.99,,2013-06-18 09:43:00,
2013-06-18 05:53:00,71.0,71.0,-100.00,WSW,240,2.0,6.0,99,-99.99,,,-99.99,,2013-06-18 09:53:00,
2013-06-18 06:02:00,71.0,71.0,-100.00,SW,230,3.0,6.0,99,-99.99,,,-99.99,,2013-06-18 10:02:00,
2013-06-18 06:11:00,71.0,71.0,-100.00,WNW,285,4.0,10.0,99,-99.99,,,-99.99,,2013-06-18 10:11:00,
2013-06-18 06:22:00,71.0,71.0,-100.00,West,260,3.0,8.0,99,-99.99,,,-99.99,,2013-06-18 10:22:00,
2013-06-18 06:33:00,71.0,71.0,-100.00,West,265,4.0,9.0,99,-99.99,,,-99.99,,2013-06-18 10:33:00,
2013-06-18 06:43:00,71.0,71.0,-100.00,West,265,4.0,8.0,99,-99.99,,,-99.99,,2013-06-18 10:43:00,
2013-06-18 06:53:00,71.0,71.0,-100.00,WSW,255,4.0,7.0,99,-99.99,,,-99.99,,2013-06-18 10:53:00,
2013-06-18 07:02:00,71.0,71.0,-100.00,West,270,4.0,9.0,99,-99.99,,,-99.99,,2013-06-18 11:02:00,
2013-06-18 07:11:00,71.0,71.0,-100.00,West,275,2.0,8.0,99,-99.99,,,-99.99,,2013-06-18 11:11:00,
2013-06-18 07:22:00,71.0,71.0,-100.00,WSW,255,4.0,8.0,99,-99.99,,,-99.99,,2013-06-18 11:22:00,
2013-06-18 07:32:00,72.0,71.0,-100.00,SSW,205,3.0,7.0,99,-99.99,,,-99.99,,2013-06-18 11:32:00,
2013-06-18 07:43:00,72.0,71.0,-100.00,WSW,250,4.0,9.0,99,-99.99,,,-99.99,,2013-06-18 11:43:00,
2013-06-18 07:52:00,72.0,71.0,-100.00,SSW,210,2.0,10.0,99,-99.99,,,-99.99,,2013-06-18 11:52:00,
2013-06-18 08:01:00,72.0,72.0,-100.00,West,275,3.0,7.0,99,-99.99,,,-99.99,,2013-06-18 12:01:00,
2013-06-18 08:11:00,72.0,72.0,-100.00,West,275,3.0,7.0,99,-99.99,,,-99.99,,2013-06-18 12:11:00,
2013-06-18 08:22:00,72.0,72.0,-100.00,SW,235,1.0,7.0,99,-99.99,,,-99.99,,2013-06-18 12:22:00,
2013-06-18 08:33:00,72.0,72.0,-100.00,SW,230,2.0,7.0,99,-99.99,,,-99.99,,2013-06-18 12:33:00,
2013-06-18 08:43:00,73.0,73.0,-100.00,West,270,1.0,8.0,99,-99.99,,,-99.99,,2013-06-18 12:43:00,
2013-06-18 08:52:00,73.0,73.0,-100.00,SW,235,4.0,9.0,99,-99.99,,,-99.99,,2013-06-18 12:52:00,
2013-06-18 09:02:00,73.0,73.0,-100.00,SW,235,5.0,11.0,99,-99.99,,,-99.99,,2013-06-18 13:02:00,
2013-06-18 09:12:00,73.0,73.0,-100.00,SW,235,5.0,11.0,99,-99.99,,,-99.99,,2013-06-18 13:12:00,
2013-06-18 09:22:00,73.0,73.0,-100.00,SW,230,4.0,10.0,99,-99.99,,,-99.99,,2013-06-18 13:22:00,
2013-06-18 09:33:00,73.0,73.0,-100.00,WSW,245,4.0,11.0,99,-99.99,,,-99.99,,2013-06-18 13:33:00,
2013-06-18 09:43:00,74.0,73.0,-100.00,SW,235,9.0,12.0,99,-99.99,,,-99.99,,2013-06-18 13:43:00,
2013-06-18 09:52:00,74.0,74.0,-100.00,SW,235,7.0,13.0,98,-99.99,,,-99.99,,2013-06-18 13:52:00,
2013-06-18 10:02:00,74.0,74.0,-100.00,West,265,5.0,11.0,98,-99.99,,,-99.99,,2013-06-18 14:02:00,
2013-06-18 10:11:00,74.0,73.0,-100.00,WSW,240,3.0,12.0,97,-99.99,,,-99.99,,2013-06-18 14:11:00,
2013-06-18 10:22:00,74.0,73.0,-100.00,SW,230,4.0,10.0,98,-99.99,,,-99.99,,2013-06-18 14:22:00,
2013-06-18 10:33:00,74.0,73.0,-100.00,SW,235,2.0,9.0,99,-99.99,,,-99.99,,2013-06-18 14:33:00,
2013-06-18 10:43:00,73.0,73.0,-100.00,WSW,245,5.0,11.0,99,-99.99,,,-99.99,,2013-06-18 14:43:00,
2013-06-18 10:53:00,72.0,72.0,-100.00,NW,310,6.0,10.0,99,-99.99,,,-99.99,,2013-06-18 14:53:00,
2013-06-18 11:02:00,72.0,71.0,-100.00,West,270,4.0,15.0,99,-99.99,,,-99.99,,2013-06-18 15:02:00,
2013-06-18 11:11:00,72.0,72.0,-100.00,SW,215,3.0,10.0,99,-99.99,,,-99.99,,2013-06-18 15:11:00,
2013-06-18 11:22:00,72.0,72.0,-100.00,SW,235,5.0,9.0,99,-99.99,,,-99.99,,2013-06-18 15:22:00,
2013-06-18 11:33:00,73.0,73.0,-100.00,SW,230,4.0,9.0,99,-99.99,,,-99.99,,2013-06-18 15:33:00,
2013-06-18 11:43:00,73.0,73.0,-100.00,SW,230,4.0,11.0,99,-99.99,,,-99.99,,2013-06-18 15:43:00,
2013-06-18 11:53:00,74.0,74.0,-100.00,SW,235,6.0,10.0,99,-99.99,,,-99.99,,2013-06-18 15:53:00,
2013-06-18 12:01:00,75.0,74.0,-100.00,WSW,255,6.0,15.0,99,-99.99,,,-99.99,,2013-06-18 16:01:00,
2013-06-18 12:11:00,75.0,74.0,-100.00,WSW,255,6.0,15.0,99,-99.99,,,-99.99,,2013-06-18 16:11:00,
2013-06-18 12:23:00,76.0,74.0,-100.00,West,265,4.0,18.0,95,-99.99,,,-99.99,,2013-06-18 16:23:00,
2013-06-18 12:33:00,76.0,74.0,-100.00,West,265,4.0,18.0,95,-99.99,,,-99.99,,2013-06-18 16:33:00,
2013-06-18 12:43:00,77.0,73.0,-100.00,West,260,6.0,15.0,90,-99.99,,,-99.99,,2013-06-18 16:43:00,
2013-06-18 12:53:00,77.0,74.0,-100.00,WSW,255,5.0,14.0,89,-99.99,,,-99.99,,2013-06-18 16:53:00,
2013-06-18 13:02:00,79.0,73.0,-100.00,WSW,245,4.0,15.0,82,-99.99,,,-99.99,,2013-06-18 17:02:00,
2013-06-18 13:12:00,80.0,73.0,-100.00,West,265,4.0,14.0,78,-99.99,,,-99.99,,2013-06-18 17:12:00,
2013-06-18 13:22:00,82.0,73.0,-100.00,NNW,340,4.0,13.0,74,-99.99,,,-99.99,,2013-06-18 17:22:00,
2013-06-18 13:33:00,81.0,72.0,-100.00,NW,315,9.0,14.0,73,-99.99,,,-99.99,,2013-06-18 17:33:00,
2013-06-18 13:43:00,82.0,72.0,-100.00,WSW,240,8.0,13.0,72,-99.99,,,-99.99,,2013-06-18 17:43:00,
2013-06-18 13:53:00,82.0,72.0,-100.00,WSW,250,8.0,14.0,70,-99.99,,,-99.99,,2013-06-18 17:53:00,
2013-06-18 14:02:00,82.0,72.0,-100.00,SW,235,5.0,14.0,72,-99.99,,,-99.99,,2013-06-18 18:02:00,
2013-06-18 14:12:00,82.0,72.0,-100.00,SW,235,7.0,15.0,71,-99.99,,,-99.99,,2013-06-18 18:12:00,
2013-06-18 14:22:00,82.0,72.0,-100.00,SW,235,7.0,15.0,71,-99.99,,,-99.99,,2013-06-18 18:22:00,
2013-06-18 14:33:00,83.0,72.0,-100.00,WSW,240,5.0,16.0,70,-99.99,,,-99.99,,2013-06-18 18:33:00,
2013-06-18 14:42:00,85.0,73.0,-100.00,WSW,240,6.0,14.0,68,-99.99,,,-99.99,,2013-06-18 18:42:00,
2013-06-18 14:53:00,85.0,73.0,-100.00,WSW,240,6.0,14.0,68,-99.99,,,-99.99,,2013-06-18 18:53:00,
2013-06-18 15:02:00,82.0,71.0,-100.00,SW,225,11.0,19.0,70,-99.99,,,-99.99,,2013-06-18 19:02:00,
2013-06-18 15:12:00,82.0,71.0,-100.00,SW,225,11.0,19.0,70,-99.99,,,-99.99,,2013-06-18 19:12:00,
2013-06-18 15:22:00,84.0,72.0,-100.00,WSW,245,6.0,15.0,68,-99.99,,,-99.99,,2013-06-18 19:22:00,
2013-06-18 15:33:00,83.0,71.0,-100.00,WSW,255,5.0,13.0,68,-99.99,,,-99.99,,2013-06-18 19:33:00,
2013-06-18 15:43:00,83.0,72.0,-100.00,West,260,4.0,14.0,70,-99.99,,,-99.99,,2013-06-18 19:43:00,
2013-06-18 15:52:00,83.0,72.0,-100.00,SW,225,8.0,15.0,69,-99.99,,,-99.99,,2013-06-18 19:52:00,
2013-06-18 16:02:00,83.0,72.0,-100.00,SW,230,7.0,16.0,69,-99.99,,,-99.99,,2013-06-18 20:02:00,
2013-06-18 16:11:00,83.0,72.0,-100.00,WSW,255,10.0,21.0,69,-99.99,,,-99.99,,2013-06-18 20:11:00,
2013-06-18 16:23:00,83.0,72.0,-100.00,West,260,7.0,16.0,70,-99.99,,,-99.99,,2013-06-18 20:23:00,
2013-06-18 16:33:00,86.0,73.0,-100.00,West,270,5.0,17.0,66,-99.99,,,-99.99,,2013-06-18 20:33:00,
2013-06-18 16:43:00,85.0,72.0,-100.00,West,260,5.0,13.0,66,-99.99,,,-99.99,,2013-06-18 20:43:00,
2013-06-18 16:52:00,81.0,73.0,-100.00,West,265,7.0,15.0,77,-99.99,,,-99.99,,2013-06-18 20:52:00,
2013-06-18 17:02:00,81.0,74.0,-100.00,WNW,285,2.0,10.0,81,-99.99,,,-99.99,,2013-06-18 21:02:00,
2013-06-18 17:12:00,81.0,74.0,-100.00,WNW,285,2.0,10.0,81,-99.99,,,-99.99,,2013-06-18 21:12:00,
2013-06-18 17:33:00,74.0,74.0,-100.00,WSW,255,5.0,10.0,99,-99.99,,,-99.99,,2013-06-18 21:33:00,
2013-06-18 17:43:00,75.0,74.0,-100.00,WNW,290,3.0,9.0,99,-99.99,,,-99.99,,2013-06-18 21:43:00,
2013-06-18 17:52:00,75.0,74.0,-100.00,ENE,65,1.0,9.0,99,-99.99,,,-99.99,,2013-06-18 21:52:00,
2013-06-18 18:02:00,76.0,76.0,-100.00,WNW,295,2.0,4.0,99,-99.99,,,-99.99,,2013-06-18 22:02:00,
2013-06-18 18:11:00,79.0,78.0,-100.00,West,270,3.0,9.0,99,-99.99,,,-99.99,,2013-06-18 22:11:00,
2013-06-18 18:22:00,80.0,79.0,-100.00,West,270,5.0,11.0,96,-99.99,,,-99.99,,2013-06-18 22:22:00,
2013-06-18 18:34:00,81.0,77.0,-100.00,WSW,240,4.0,11.0,87,-99.99,,,-99.99,,2013-06-18 22:34:00,
2013-06-18 18:43:00,82.0,77.0,-100.00,South,180,4.0,14.0,83,-99.99,,,-99.99,,2013-06-18 22:43:00,
2013-06-18 18:53:00,81.0,76.0,-100.00,SW,235,5.0,14.0,83,-99.99,,,-99.99,,2013-06-18 22:53:00,
2013-06-18 19:02:00,81.0,75.0,-100.00,WSW,250,5.0,14.0,82,-99.99,,,-99.99,,2013-06-18 23:02:00,
2013-06-18 19:12:00,81.0,75.0,-100.00,WSW,240,4.0,10.0,82,-99.99,,,-99.99,,2013-06-18 23:12:00,
2013-06-18 19:23:00,81.0,74.0,-100.00,West,275,4.0,13.0,81,-99.99,,,-99.99,,2013-06-18 23:23:00,
2013-06-18 19:37:00,81.0,74.0,-100.00,West,275,3.0,9.0,81,-99.99,,,-99.99,,2013-06-18 23:37:00,
2013-06-18 19:47:00,81.0,74.0,-100.00,West,270,3.0,9.0,81,-99.99,,,-99.99,,2013-06-18 23:47:00,
2013-06-18 19:53:00,81.0,74.0,-100.00,WSW,240,0.0,7.0,81,-99.99,,,-99.99,,2013-06-18 23:53:00,
2013-06-18 20:02:00,80.0,74.0,-100.00,SW,235,4.0,8.0,81,-99.99,,,-99.99,,2013-06-19 00:02:00,
2013-06-18 20:12:00,81.0,74.0,-100.00,West,260,4.0,9.0,81,-99.99,,,-99.99,,2013-06-19 00:12:00,
2013-06-18 20:22:00,80.0,74.0,-100.00,SW,230,4.0,8.0,82,-99.99,,,-99.99,,2013-06-19 00:22:00,
2013-06-18 20:33:00,80.0,74.0,-100.00,SW,225,6.0,11.0,82,-99.99,,,-99.99,,2013-06-19 00:33:00,
2013-06-18 20:43:00,79.0,73.0,-100.00,WSW,250,6.0,18.0,82,-99.99,,,-99.99,,2013-06-19 00:43:00,
2013-06-18 20:53:00,79.0,73.0,-100.00,West,265,8.0,19.0,83,-99.99,,,-99.99,,2013-06-19 00:53:00,
2013-06-18 21:01:00,78.0,73.0,-100.00,WNW,285,4.0,13.0,84,-99.99,,,-99.99,,2013-06-19 01:01:00,
2013-06-18 21:11:00,78.0,74.0,-100.00,NNE,15,2.0,11.0,88,-99.99,,,-99.99,,2013-06-19 01:11:00,
2013-06-18 21:22:00,76.0,75.0,-100.00,ENE,70,5.0,11.0,98,-99.99,,,-99.99,,2013-06-19 01:22:00,
2013-06-18 21:32:00,73.0,73.0,-100.00,East,85,4.0,11.0,99,-99.99,,,-99.99,,2013-06-19 01:32:00,
2013-06-18 21:43:00,72.0,72.0,-100.00,East,80,7.0,11.0,99,-99.99,,,-99.99,,2013-06-19 01:43:00,
2013-06-18 21:53:00,72.0,72.0,-100.00,ENE,75,0.0,9.0,99,-99.99,,,-99.99,,2013-06-19 01:53:00,
2013-06-18 22:01:00,72.0,71.0,-100.00,SSW,210,3.0,4.0,99,-99.99,,,-99.99,,2013-06-19 02:01:00,
2013-06-18 22:11:00,72.0,72.0,-100.00,NNW,345,0.0,5.0,99,-99.99,,,-99.99,,2013-06-19 02:11:00,
2013-06-18 22:21:00,72.0,72.0,-100.00,NNE,25,1.0,4.0,99,-99.99,,,-99.99,,2013-06-19 02:21:00,
2013-06-18 22:32:00,72.0,71.0,-100.00,South,170,4.0,8.0,99,-99.99,,,-99.99,,2013-06-19 02:32:00,
2013-06-18 22:42:00,71.0,71.0,-100.00,NE,40,0.0,6.0,99,-99.99,,,-99.99,,2013-06-19 02:42:00,
2013-06-18 22:52:00,71.0,71.0,-100.00,SE,130,1.0,3.0,99,-99.99,,,-99.99,,2013-06-19 02:52:00,
2013-06-18 23:01:00,71.0,71.0,-100.00,SSE,155,1.0,3.0,99,-99.99,,,-99.99,,2013-06-19 03:01:00,
2013-06-18 23:11:00,71.0,71.0,-100.00,NE,45,1.0,4.0,99,-99.99,,,-99.99,,2013-06-19 03:11:00,
2013-06-18 23:22:00,71.0,71.0,-100.00,East,80,0.0,4.0,99,-99.99,,,-99.99,,2013-06-19 03:22:00,
2013-06-18 23:33:00,71.0,71.0,-100.00,North,0,1.0,4.0,99,-99.99,,,-99.99,,2013-06-19 03:33:00,
2013-06-18 23:42:00,71.0,71.0,-100.00,South,175,0.0,1.0,99,-99.99,,,-99.99,,2013-06-19 03:42:00,
2013-06-18 23:52:00,71.0,71.0,-100.00,SSE,150,2.0,2.0,99,-99.99,,,-99.99,,2013-06-19 03:52:00,